Regional Weather Roundup
Issued by NWS

Home | Current Version | Previous Version | Text Only | Print | Product List | Glossary On
Versions: 1 2 3 4 5 6 7 8 9 10 11 12 13 14 15 16 17 18 19 20 21 22 23 24 25 26 27 28 29 30 31 32 33 34 35 36 37 38 39 40 41 42 43 44 45 46 47 48 49 50
000
ASUS43 KMKX 131210
RWRWI

WISCONSIN REGIONAL WEATHER ROUNDUP
NATIONAL WEATHER SERVICE MILWAUKEE/SULLIVAN WI
600 AM CST WED DEC 13 2017

NOTE: "FAIR" INDICATES FEW OR NO CLOUDS BELOW 12,000 FEET WITH NO
SIGNIFICANT WEATHER AND/OR OBSTRUCTIONS TO VISIBILITY.

WIZ001-002-006>008-014>016-023>028-131300-
NORTHWEST WISCONSIN

CITY           SKY/WX    TMP DP  RH WIND       PRES   REMARKS
SUPERIOR ARPT  LGT SNOW  18  16  92 E8        29.47R VSB 1   WCI   8
6HR MIN TEMP:  16; 6HR MAX TEMP:  19; 6HR PCP:  0.05;

ASHLAND        SNOW      16  12  84 NE8       29.48S VSB 1/2 WCI   5
6HR MIN TEMP:  13; 6HR MAX TEMP:  16; 6HR PCP:  0.14;

HAYWARD        SNOW      18  13  80 SE6       29.40S VSB 1/2 WCI  10
6HR MIN TEMP:  15; 6HR MAX TEMP:  18; 6HR PCP:  0.07;

SIREN          CLOUDY    21  18  86 CALM      29.40R
6HR MIN TEMP:  18; 6HR MAX TEMP:  21;

CUMBERLAND     CLOUDY    19  14  79 SE9       29.37F WCI   9
RICE LAKE      CLOUDY    21  17  83 CALM      29.39F
6HR MIN TEMP:  16; 6HR MAX TEMP:  21;

CHETEK         CLOUDY    20  16  83 E8        29.39F WCI  11
6HR MIN TEMP:  16; 6HR MAX TEMP:  20;

LADYSMITH      LGT SNOW  19  15  88 SE7       29.43F WCI   9
6HR MIN TEMP:  15; 6HR MAX TEMP:  19; 6HR PCP:  0.01;

EAU CLAIRE     CLOUDY    21  15  78 E9        29.39F WCI  11
6HR MIN TEMP:  19; 6HR MAX TEMP:  21;

MENOMONIE      CLOUDY    22  17  80 NE8       29.39F WCI  13
6HR MIN TEMP:  19; 6HR MAX TEMP:  23;

NEW RICHMOND   CLOUDY    22  17  80 E9        29.34F WCI  11
6HR MIN TEMP:  20; 6HR MAX TEMP:  23;

OSCEOLA        CLOUDY    22  17  81 E5        29.38F WCI  16
6HR MIN TEMP:  21; 6HR MAX TEMP:  24;

$$

WIZ003>005-009-010-017-018-131300-
NORTH CENTRAL WISCONSIN

CITY           SKY/WX    TMP DP  RH WIND       PRES   REMARKS
MANITOWISH WTR LGT SNOW  11  10  93 SE8       29.43F WCI   0
6HR MIN TEMP:  10; 6HR MAX TEMP:  12; 6HR PCP:  0.01;

ARBOR VITAE    LGT SNOW  14  11  87 SE12G18   29.44F VSB 1   WCI   0
6HR MIN TEMP:  11; 6HR MAX TEMP:  14; 6HR PCP:  0.01;

WOODRUFF       LGT SNOW  14  11  87 SE12G18   29.44F VSB 1   WCI   0
6HR MIN TEMP:  11; 6HR MAX TEMP:  14; 6HR PCP:  0.01;

RHINELANDER    SNOW      11   9  92 E14       29.46F VSB 1/2 WCI  -5
6HR MIN TEMP:  10; 6HR MAX TEMP:  12; 6HR PCP:  0.05;

EAGLE RIVER    LGT SNOW  10   6  82 E10       29.48F WCI  -3
6HR MIN TEMP:  10; 6HR MAX TEMP:  11;

LAND O LAKES   LGT SNOW  10   7  85 SE10      29.50F WCI  -3
6HR MIN TEMP:  10; 6HR MAX TEMP:  11;

PHILLIPS       LGT SNOW  13  12  92 SE7       29.41F VSB 1   WCI   3
6HR MIN TEMP:  11; 6HR MAX TEMP:  14;

TOMAHAWK       LGT SNOW  13  10  87 E5        29.44F VSB 3/4 WCI   5
6HR MIN TEMP:  10; 6HR MAX TEMP:  13;

MEDFORD        LGT SNOW  15  12  88 SE8       29.42S WCI   4
6HR MIN TEMP:  11; 6HR MAX TEMP:  15;

MERRILL        LGT SNOW  14  11  89 E9        29.47F VSB 1   WCI   1
6HR MIN TEMP:  12; 6HR MAX TEMP:  14; 6HR PCP:  0.01;

$$

WIZ029-030-035-036-043>047-131300-
CENTRAL WISCONSIN

CITY           SKY/WX    TMP DP  RH WIND       PRES   REMARKS
WAUSAU         LGT SNOW  14  10  84 E10       29.47F FOG     WCI   1
6HR MIN TEMP:  12; 6HR MAX TEMP:  14; 6HR PCP:  0.01;

MOSINEE        LGT SNOW  14  12  92 E12G17    29.46F WCI   0
MARSHFIELD     CLOUDY    17  14  88 SE12      29.41F WCI   4
6HR MIN TEMP:  15; 6HR MAX TEMP:  17; 6HR PCP: TRACE;

STEVENS POINT  CLOUDY    15  11  87 E12       29.46F WCI   1
6HR MIN TEMP:  12; 6HR MAX TEMP:  15;

WAUPACA        LGT SNOW  19  14  79 E8        29.54F WCI   9
6HR MIN TEMP:  17; 6HR MAX TEMP:  20;

WAUTOMA        FLURRIES  19  16  88 E9        29.49F WCI   8
6HR MIN TEMP:  15; 6HR MAX TEMP:  20;

WISC RAPIDS    CLOUDY    19  14  81 SE10      29.46F WCI   7
6HR MIN TEMP:  15; 6HR MAX TEMP:  19; 6HR PCP: TRACE;

CAMP DOUGLAS   CLOUDY    24  16  71 SE7       29.42F WCI  16
6HR MIN TEMP:  16; 6HR MAX TEMP:  24; 6HR PCP: TRACE;

$$

WIZ011>013-019>022-031-037>040-048>050-131300-
NORTHEAST WISCONSIN

CITY           SKY/WX    TMP DP  RH WIND       PRES   REMARKS
ANTIGO         LGT SNOW  10   8  89 E13       29.49F WCI  -5
6HR MIN TEMP:  10; 6HR MAX TEMP:  11;

SHAWANO        CLOUDY    17  12  82 E9        29.59F WCI   5
6HR MIN TEMP:  16; 6HR MAX TEMP:  17;

OCONTO         CLOUDY    16  12  86 SE8       29.61F WCI   5
6HR MIN TEMP:  13; 6HR MAX TEMP:  16;

STURGEON BAY   LGT SNOW  16  11  80 SE5       29.63F WCI   9
6HR MIN TEMP:  14; 6HR MAX TEMP:  16; 6HR PCP: TRACE;

GREEN BAY      CLOUDY    18  13  80 E7        29.60F WCI   9
6HR MIN TEMP:  16; 6HR MAX TEMP:  18; 6HR PCP:  0.03;

MANITOWOC      CLOUDY    23  21  92 SE15      29.60F WCI  10
6HR MIN TEMP:  15; 6HR MAX TEMP:  23; 6HR PCP:  0.02;

APPLETON       CLOUDY    18  10  73 E8        29.54F WCI   7
CLINTONVILLE   LGT SNOW  16  12  86 E8        29.56F WCI   5
OSHKOSH        LGT SNOW  20  12  71 SE9       29.54F WCI   9
6HR MIN TEMP:  15; 6HR MAX TEMP:  20; 6HR PCP: TRACE;

$$

WIZ032>034-041-042-053>061-131300-
SOUTHWEST WISCONSIN

CITY           SKY/WX    TMP DP  RH WIND       PRES   REMARKS
LA CROSSE      CLOUDY    29  22  75 S9        29.40F WCI  20
6HR MIN TEMP:  26; 6HR MAX TEMP:  29;

SPARTA         CLOUDY    27  20  74 S9        29.40F WCI  18
6HR MIN TEMP:  23; 6HR MAX TEMP:  28;

VIROQUA        CLOUDY    24  20  84 S10       29.38F WCI  14
6HR MIN TEMP:  21; 6HR MAX TEMP:  25;

BOSCOBEL       CLOUDY    29  18  63 SW5       29.46F WCI  24
6HR MIN TEMP:  25; 6HR MAX TEMP:  29;

PRAIRIE DU CHI CLOUDY    31  20  64 SE5       29.44F WCI  26
6HR MIN TEMP:  28; 6HR MAX TEMP:  31;

PLATTEVILLE    CLOUDY    28  20  72 S14       29.46F WCI  17
6HR MIN TEMP:  23; 6HR MAX TEMP:  28;

$$

WIZ056-057-062-063-064-067-068-131300-
SOUTH CENTRAL WISCONSIN

CITY           SKY/WX    TMP DP  RH WIND       PRES   REMARKS
REEDSBURG      CLOUDY    26  16  66 SE7       29.44F WCI  18
6HR MIN TEMP:  21; 6HR MAX TEMP:  26;

BARABOO/DELLS  CLOUDY    26  17  66 S13       29.44F WCI  15
6HR MIN TEMP:  20; 6HR MAX TEMP:  26;

LONE ROCK      CLOUDY    28  19  69 SE7       29.47F WCI  21
6HR MIN TEMP:  19; 6HR MAX TEMP:  28;

MINERAL POINT  CLOUDY    28  19  69 SE15G21   29.44F WCI  17
MADISON        CLOUDY    25  14  63 S17       29.49F WCI  12
6HR MIN TEMP:  21; 6HR MAX TEMP:  26;

MIDDLETON      CLOUDY    28  17  62 S12G17    29.48F WCI  18
6HR MIN TEMP:  23; 6HR MAX TEMP:  28;

WATERTOWN      CLOUDY    22  17  81 SE9       29.54F WCI  11
6HR MIN TEMP:  19; 6HR MAX TEMP:  22;

MONROE         CLOUDY    27  18  69 S20G25    29.49F WCI  13
JANESVILLE     CLOUDY    28  16  59 S13G18    29.55F WCI  18
$$

WIZ051-052-058>065-066-070>072-131300-
SOUTHEAST WISCONSIN

CITY           SKY/WX    TMP DP  RH WIND       PRES   REMARKS
MILWAUKEE      LGT SNOW  24  12  60 S9        29.62F WCI  14
6HR MIN TEMP:  20; 6HR MAX TEMP:  24; 6HR PCP: TRACE;

WAUKESHA       LGT SNOW  19  12  73 SE9       29.60F VSB 1   WCI   9
MILWAUKEE/TIMM FLURRIES  23  10  58 S9        29.61F WCI  13
RACINE         CLOUDY    25   9  50 S12       29.65F WCI  14
6HR MIN TEMP:  19; 6HR MAX TEMP:  25;

BURLINGTON       N/A    N/A N/A N/A MISG        N/A
KENOSHA        LGT SNOW  24  12  60 S10       29.63F WCI  14
6HR MIN TEMP:  20; 6HR MAX TEMP:  24; 6HR PCP: TRACE;

FOND DU LAC    LGT SNOW  21  14  74 S17       29.53F WCI   7
6HR MIN TEMP:  17; 6HR MAX TEMP:  22; 6HR PCP: TRACE;

SHEBOYGAN      CLOUDY    23  17  78 S9        29.59F WCI  13
6HR MIN TEMP:  16; 6HR MAX TEMP:  23; 6HR PCP:  0.01;

WEST BEND      FLURRIES  21  12  68 S8        29.58F WCI  12
JUNEAU         CLOUDY    21  15  80 SE17      29.53F WCI   6
6HR MIN TEMP:  17; 6HR MAX TEMP:  21;

$$

LSZ147-162-131300-
LAKE SUPERIOR

STATION/POSITION TIME  TEMP    WIND        PRES    WAVE
                       AIR SEA DIR/SP/G            HT/PER
                 (UTC) (F)     (DEG/KT/KT) (MB)    (FT/S)
DEVILS ISLAND    1200   21     100/ 18/ 21 1000.0F
SAXON HARBOR     1130   17                  998.6F
$$

LMZ867-665-643>646-131300-
LAKE MICHIGAN

STATION/POSITION TIME  TEMP    WIND        PRES    WAVE
                       AIR SEA DIR/SP/G            HT/PER
                 (UTC) (F)     (DEG/KT/KT) (MB)    (FT/S)
NORTHPORT PIER   1142



USA.gov is the U.S. government's official web portal to all federal, state and local government web resources and services.